Miscellaneous Local Product
Issued by NWS North Platte, NE

Home | Current Version | Previous Version | Text Only | Print | Product List | Glossary On
Versions: 1 2 3 4 5 6 7 8 9 10 11 12 13 14 15 16 17 18 19 20 21 22 23 24 25 26 27 28 29 30 31 32 33 34 35 36 37 38 39 40 41 42 43 44 45 46 47 48 49 50
000
AXUS43 KLBF 262010
MISLBF


WESTERN AND NORTH CENTRAL NEBRASKA HOURLY WEATHER ROUNDUP
NATIONAL WEATHER SERVICE NORTH PLATTE NE
300 PM CDT WED JUL 26 2017

NOTE: "FAIR" INDICATES FEW OR NO CLOUDS BELOW 12,000 FEET WITH NO
SIGNIFICANT WEATHER AND/OR OBSTRUCTIONS TO VISIBILITY.

NOTE: STATIONS NOT REPORTING VARIABLES SUCH AS SKY/WEATHER OR
PRESSURE ARE PROVIDED BY RAWS AND APRS NETWORKS AND ARE NOT UNDER
NATIONAL WEATHER SERVICE QUALITY CONTROL.

...OBSERVATIONS IN AND NEAR THE EASTERN PANHANDLE OF NEBRASKA...

CITY           SKY/WX    TMP DP  RH WIND       PRES   REMARKS
PINE RIDGE     CLOUDY    83  58  42 NE12G23   30.17S
GORDON         FAIR      82  57  43 NE16G24   30.17S
CHADRON        CLOUDY    82  54  37 E12G20    30.16S
ALLIANCE       CLOUDY    79  60  52 NE17G23   30.17F
SIDNEY         CLOUDY    82  60  47 NE17G24   30.20S
CRESCENT LAKE    N/A     75  62  63 NE13G20     N/A
$$

...OBSERVATIONS IN NORTHERN NEBRASKA AND FAR SOUTHERN SOUTH DAKOTA...

CITY           SKY/WX    TMP DP  RH WIND       PRES   REMARKS
WINNER         FAIR      90  60  36 NE14G25   30.08S
VALENTINE      CLOUDY    87  62  43 NE18G25   30.10S
THEDFORD       CLOUDY    78  67  68 NE10      30.11S
AINSWORTH      CLOUDY    78  68  69 NE13      30.10F
O`NEILL        CLOUDY    81  71  71 NE10      30.05F
ORD            CLOUDY    78  68  71 N8        30.04S
BROKEN BOW     CLOUDY    78  68  71 NE13      30.07S
VALENTINE NWR    N/A     76  67  72 NE8G16      N/A
HALSEY           N/A     80  67  64 N6G13       N/A
BUTTE            N/A     78  71  79 E9          N/A
CHAMBERS         N/A     85  72  65 CALM        N/A  HX  91
EWING            N/A     80  74  83 N3          N/A
$$

...OBSERVATIONS IN SOUTHWEST NEBRASKA AND FAR NORTHEAST COLORADO...

CITY           SKY/WX    TMP DP  RH WIND       PRES   REMARKS
HOLYOKE        FAIR      84  63  48 NE10G17   30.14S
IMPERIAL       CLOUDY    82  64  54 NE13      30.11S
OGALLALA       CLOUDY    82  64  55 NE15      30.13R
NORTH PLATTE   CLOUDY    78  67  68 NE7       30.09R
MCCOOK         CLOUDY    76  69  79 N20       30.06R
LEXINGTON      CLOUDY    75  69  82 NE15G21   30.06R
STAPLETON        N/A     76  67  75 CALM        N/A
GOTHENBURG       N/A     74  65  73 NE6         N/A
CALLAWAY         N/A     79  71  75 E8          N/A
$$

...OBSERVATIONS IN CENTRAL LINCOLN COUNTY AREA...

CITY           SKY/WX    TMP DP  RH WIND       PRES   REMARKS
N.P. AIRPORT   CLOUDY    78  67  68 NE7       30.09R
N.P. DOWNTOWN    N/A     78  68  70 E7          N/A
N.P. SOUTHEAST   N/A     77  67  70 NE3         N/A
N.P. HILLCREST   N/A     77  66  69 NE12        N/A
$$

...SOME OBSERVATIONS FROM AROUND THE REGION...

CITY           SKY/WX    TMP DP  RH WIND       PRES   REMARKS
DENVER         CLOUDY    78  58  49 N6        30.24F
LIMON          SUNNY     81  62  52 N15G21    30.23F
ASPEN          CLOUDY    74  53  48 VRB3      30.39F
LARAMIE        CLOUDY    71  54  54 E8        30.35F
CASPER         MOSUNNY   75  58  55 SE8       30.26F
CHEYENNE       CLOUDY    71  56  58 NE10G20   30.32S
SCOTTSBLUFF    CLOUDY    81  58  45 E13       30.19F
GRAND ISLAND   CLOUDY    75  73  93 NE12      30.02S
OMAHA          TSTM      74  71  91 N9        29.99S FOG
SIOUX FALLS    MOSUNNY   84  69  60 NE13      30.04S
PIERRE         SUNNY     89  51  27 E15G21    30.08S
RAPID CITY     MOSUNNY   82  49  31 NE5       30.18F
BISMARCK       SUNNY     87  53  31 N12G20    30.11F
KANSAS CITY    CLOUDY    81  75  82 S5        29.99S
HILL CITY      PTSUNNY   94  69  44 N12       29.95S HX  99
WICHITA        CLOUDY    99  68  36 S18G32    29.92F HX 104
DODGE CITY     CLOUDY    92  65  40 W8        30.00F HX  94
OKLAHOMA CITY  CLOUDY    99  66  33 S17G25    29.98F HX 103
DALLAS         MOSUNNY   96  71  44 S10G21    30.01F HX 103
AMARILLO       CLOUDY    98  60  28 S16G29    30.06F HX  98
$$




USA.gov is the U.S. government's official web portal to all federal, state and local government web resources and services.